Regional Weather Roundup
Issued by NWS

Home | Current Version | Previous Version | Text Only | Print | Product List | Glossary On
Versions: 1 2 3 4 5 6 7 8 9 10 11 12 13 14 15 16 17 18 19 20 21 22 23 24 25 26 27 28 29 30 31 32 33 34 35 36 37 38 39 40 41 42 43 44 45 46 47 48 49 50
000
ASUS43 KDTX 311501
RWRMI
MICHIGAN HOURLY REGIONAL WEATHER ROUNDUP
NATIONAL WEATHER SERVICE DETROIT/PONTIAC MI
1100 AM EDT TUE MAY 31 2016

NOTE: "FAIR" INDICATES FEW OR NO CLOUDS BELOW 12,000 FEET WITH NO
SIGNIFICANT WEATHER AND/OR OBSTRUCTION TO VISIBILITY.

MIZ047>049-052>055-059>063-066>070-074>076-081>083-311600-
SOUTHEAST LOWER MICHIGAN

CITY           SKY/WX    TMP DP  RH WIND       PRES   REMARKS
ADRIAN         MOSUNNY   79  50  36 NE10      30.05S
ALMA           SUNNY     73  51  47 N8        30.07F
ANN ARBOR      SUNNY     77  51  40 NE7       30.05S
BAD AXE        SUNNY     67  53  60 NE12      30.10R
CARO           SUNNY     74  54  50 N7        30.07S
DETROIT CITY   SUNNY     77  49  37 E8        30.04F
DETROIT        PTSUNNY   78  50  37 NE8       30.05S
FLINT          SUNNY     78  50  37 NE6       30.06S
GROSSE ILE     MOSUNNY   79  48  34 N10       30.03S
HILLSDALE      MOSUNNY   76  38  25 NE5       30.06S
HOWELL         SUNNY     76  46  33 E5        30.06S

CITY           SKY/WX    TMP DP  RH WIND       PRES   REMARKS
JACKSON        MOSUNNY   77  50  38 E6        30.06S
LAMBERTVILLE   MOSUNNY   79  56  45 NE6       30.05R
LANSING        SUNNY     76  50  40 E7        30.06F
LAPEER         FAIR      73  47  39 NE5       30.07S
MASON          SUNNY     75  48  37 E5        30.06F
MONROE         MOSUNNY   78  56  45 NE7       30.03S
MT. CLEMENS    PTSUNNY   78  54  43 E3        30.06S
PONTIAC        PTSUNNY   78  47  33 NE8       30.05S
PORT HOPE        N/A     60  53  77 VRB6      30.09R
PORT HURON     SUNNY     70  55  60 NE12      30.07R
TRI CITIES     SUNNY     74  55  51 NE9       30.07F
MIDLAND        FAIR      72  53  50 NE7       30.07S
TROY           SUNNY     78  47  32 N6        30.07S
SAGINAW HB     SUNNY     73  57  56 NE7       30.06F
$$
MIZ043>046-050>051-056>058-064>065-071>073-077>080-311600-
SOUTHWEST LOWER MICHIGAN

CITY           SKY/WX    TMP DP  RH WIND       PRES   REMARKS
BATTLE CREEK   MOSUNNY   76  50  40 E8        30.05F
BENTON HARBOR  PTSUNNY   78  51  38 E9        30.02F
BIG RAPIDS     SUNNY     72  56  56 NE3       30.06F
COLDWATER      MOSUNNY   76  52  42 NE7       30.04F
FREMONT        FAIR      73  52  47 SE6       30.05S
HOLLAND        SUNNY     78  49  35 E10       30.04F
GRAND RAPIDS   PTSUNNY   77  49  37 E10       30.05F
IONIA          FAIR      74  48  40 E6        30.05F
KALAMAZOO      MOSUNNY   77  48  35 VRB5      30.04F
LUDINGTON      PTSUNNY   71  56  58 E5        30.04F
MARSHALL       MOSUNNY   76  48  37 E6        30.05F
MOUNT PLEASANT SUNNY     72  54  53 E3        30.06F
MUSKEGON       PTSUNNY   77  51  40 E8        30.04F
SOUTH HAVEN    MOSUNNY   78  51  39 E9        30.02F
$$
MIZ016>042-311600-
NORTHERN LOWER MICHIGAN

CITY           SKY/WX    TMP DP  RH WIND       PRES   REMARKS
ALPENA         SUNNY     61  49  64 N12       30.11S
BEAVER ISLAND  SUNNY     55  46  70 NE12      30.09F
BELLAIRE       SUNNY     67  46  47 E5        30.07F
CADILLAC       SUNNY     71  53  52 CALM      30.07F
CHARLEVOIX     SUNNY     62  47  57 E6        30.10F
FRANKFORT      SUNNY     69  54  59 E7        30.06F
GAYLORD        SUNNY     64  46  52 E7        30.08F
GRAYLING       SUNNY     70  49  48 NE3       30.08F
HARBOR SPRINGS SUNNY     62  47  59 E7        30.09F
HOUGHTON LAKE  SUNNY     70  51  51 SE3       30.08F
MANISTEE       SUNNY     72  54  53 E5        30.06F
OSCODA         SUNNY     65  50  58 E12       30.07F
PELLSTON       SUNNY     60  46  59 E8        30.11F
ROGERS CITY    MOSUNNY   53  46  76 N7        30.14S
TRAVERSE CITY  MOSUNNY   63  50  62 N3        30.07F
$$
MIZ007>008-015-311600-
EASTERN UPPER MICHIGAN

CITY           SKY/WX    TMP DP  RH WIND       PRES   REMARKS
KINROSS          N/A     57  45  62 E10       30.11F
MACKINAC ISLAN SUNNY     54  45  72 NE5       30.11F
NEWBERRY       MOSUNNY   57  44  59 E8        30.11F
S. S. MARIE    SUNNY     60  43  53 NE6       30.10F
MUNISING         N/A     51  45  79 NE14      30.10F
$$
MIZ004>006-011>014-085-311600-
CENTRAL UPPER MICHIGAN

CITY           SKY/WX    TMP DP  RH WIND       PRES   REMARKS
MANISTIQUE     MOSUNNY   61  45  56 NE12G17   30.08F
ESCANABA         N/A     57  46  67 NE6       30.09S
MENOMINEE      SUNNY     55  46  71 E13       30.10S
SAWYER-GWINN   SUNNY     52  41  66 NE7       30.10S
$$
MIZ001>003-009>011-084-311600-
WESTERN UPPER MICHIGAN

CITY           SKY/WX    TMP DP  RH WIND       PRES   REMARKS
IRON MOUNTAIN  CLOUDY    57  44  62 E7        30.08R
HOUGHTON       MOSUNNY   47  41  80 E17G26    30.08F
COPPER HARBOR    N/A     50  41  71 S12G17    30.11F
IRONWOOD       CLOUDY    57  48  72 E7          N/A
$$

ABBREVIATIONS USED IN REMARKS
   TC - TEMPERATURE IN CELSIUS
  WCI - WIND CHILL INDEX
   HX - HEAT INDEX
  VSB - VISIBILITY





USA.gov is the U.S. government's official web portal to all federal, state and local government web resources and services.